This is the latest recevied weather packets stored in our database for station/object BM2MWA-13. If no packets are shown the sender has not sent any weather packets the latest 10 day(s).
| Time | Temp. | Humidity | Pressure | Rain* | Wind** | Luminosity | Snow |
|---|---|---|---|---|---|---|---|
| 1777568823 | 19.44° C | 84% | 1013.2 hPa | 0 mm | - | - | - |
| 1777568224 | 19.44° C | 85% | 1013.3 hPa | 0 mm | - | - | - |
| 1777567623 | 19.44° C | 84% | 1013.4 hPa | 0 mm | - | - | - |
| 1777567023 | 19.44° C | 88% | 1013.4 hPa | 0 mm | - | - | - |
| 1777566423 | 19.44° C | 85% | 1013.5 hPa | 0 mm | - | - | - |
| 1777565823 | 19.44° C | 85% | 1013.5 hPa | 0 mm | - | - | - |
| 1777565223 | 19.44° C | 86% | 1013.6 hPa | 0 mm | - | - | - |
| 1777564623 | 19.44° C | 86% | 1013.6 hPa | 0 mm | - | - | - |
| 1777564023 | 19.44° C | 87% | 1013.8 hPa | 0 mm | - | - | - |
| 1777563423 | 19.44° C | 87% | 1013.9 hPa | 0 mm | - | - | - |
| 1777562823 | 18.89° C | 88% | 1013.9 hPa | 0 mm | - | - | - |
| 1777562224 | 18.89° C | 89% | 1013.9 hPa | 0 mm | - | - | - |
| 1777561624 | 18.89° C | 90% | 1014 hPa | 0 mm | - | - | - |
| 1777561024 | 18.89° C | 90% | 1014.2 hPa | 0 mm | - | - | - |
| 1777560424 | 18.89° C | 90% | 1014 hPa | 0 mm | - | - | - |
| 1777559825 | 18.89° C | 90% | 1014.2 hPa | 0 mm | - | - | - |
| 1777559224 | 18.89° C | 90% | 1014.2 hPa | 0 mm | - | - | - |
| 1777558625 | 18.89° C | 91% | 1014.2 hPa | 0.51 mm | - | - | - |
| 1777558024 | 18.89° C | 91% | 1014 hPa | 0.51 mm | - | - | - |
| 1777557424 | 18.89° C | 92% | 1014.1 hPa | 0.51 mm | - | - | - |
| 1777556824 | 18.89° C | 91% | 1014.1 hPa | 0.51 mm | - | - | - |
| 1777556223 | 18.89° C | 92% | 1014.1 hPa | 0.51 mm | - | - | - |
| 1777555624 | 18.89° C | 90% | 1014 hPa | 0.51 mm | - | - | - |
| 1777555023 | 18.89° C | 89% | 1014 hPa | 0 mm | - | - | - |
| 1777554423 | 18.89° C | 88% | 1013.8 hPa | 0 mm | - | - | - |
* Rain latest hour (hover to see other rain measurements)
** Current wind speed in m/s (hover to see current wind gust speed)